Hourly Weather Roundup
Issued by NWS Central Illinois

Home | Current Version | Previous Version | Text Only | Print | Product List | Glossary On
Versions: 1 2 3 4 5 6 7 8 9 10 11 12 13 14 15 16 17 18 19 20 21 22 23 24 25 26 27 28 29 30 31 32 33 34 35 36 37 38 39 40 41 42 43 44 45 46 47 48 49 50
000
NZUS43 KILX 270410
HWRILX

AREA WEATHER ROUNDUP
NATIONAL WEATHER SERVICE, LINCOLN IL
1100 PM CDT TUE AUG 26 2014


CITY           SKY/WX    TMP DP  RH WIND       PRES   REMARKS
BLOOMINGTON    MOCLDY    73  65  76 NW5       30.10F
CHAMPAIGN      CLOUDY    71  67  87 N3        30.09F
DECATUR        CLOUDY    72  66  81 SW10      30.09R
FLORA          PTCLDY    74  72  95 CALM      30.08F
GALESBURG      PTCLDY    71  68  90 N5        30.10F
JACKSONVILLE   MOCLDY    79  72  79 SE9       30.12R HX  82
LACON          MOCLDY    74  72  92 CALM      30.09R
LAWRENCEVILLE  PTCLDY    74  73  97 CALM      30.07S
LITCHFIELD     TSTM      69  66  90 N25       30.18R
$$


CITY           SKY/WX    TMP DP  RH WIND       PRES   REMARKS
LINCOLN        CLOUDY    75  65  72 S6        30.05S
MACOMB         CLEAR     71  69  93 N3        30.12S
MATTOON        CLOUDY    74  67  78 CALM      30.09F
MT CARMEL AP   PTCLDY    75  73  94 CALM      30.07S
OLNEY-NOBLE AP PTCLDY    73  72  94 CALM      30.08S
PARIS          CLOUDY    70  70  98 CALM      30.09F
PEORIA         PTCLDY    80  72  76 CALM      30.08F HX  84
PONTIAC        CLOUDY    77  75  94 CALM      30.09F
RANTOUL        CLOUDY    74  68  82 CALM      30.11S
ROBINSON       MOCLDY    72  71  96 CALM      30.09S
SPRINGFIELD    CLOUDY    75  68  78 S8        30.09S
TAYLORVILLE    CLOUDY    70  64  83 SW9       30.07F
$$

...REGIONAL REPORTS...


CITY           SKY/WX    TMP DP  RH WIND       PRES   REMARKS
CHICAGO O`HARE MOCLDY    72  64  76 N6        30.11S
KANKAKEE       CLOUDY    75  73  93 N3        30.09S
MOLINE         CLEAR     73  64  73 NE5       30.10S
MOUNT VERNON   CLEAR     73  70  88 CALM      30.09R
PITTSFIELD     PTCLDY    77  73  85 N3        30.11R
QUINCY         CLEAR     74  70  87 NE7       30.09S
ROCKFORD       PTCLDY    69  64  84 CALM      30.12F
$$


CITY           SKY/WX    TMP DP  RH WIND       PRES   REMARKS
BURLINGTON     CLEAR     74  68  81 NE5       30.11R
CEDAR RAPIDS   MOCLDY    71  64  78 CALM      30.11S
DES MOINES     MOCLDY    73  64  73 E5        30.13R
KIRKSVILLE     PTCLDY    71  68  90 N6        30.13R
OTTUMWA        PTCLDY    69  65  86 N6        30.12S
ST LOUIS       PTCLDY    83  71  67 CALM      30.08R HX  87
$$


CITY           SKY/WX    TMP DP  RH WIND       PRES   REMARKS
TERRE HAUTE    CLOUDY    71  68  90 CALM      30.09R
EVANSVILLE     CLEAR     80  72  76 CALM      30.07S HX  84
INDIANAPOLIS   MOCLDY    74  68  81 CALM      30.08S
LAFAYETTE      CLOUDY    70  69  97 CALM      30.10R
MADISON        PTCLDY    63  59  87 NW3       30.13S
MILWAUKEE      PTCLDY    67  59  75 NW3       30.12S
$$





USA.gov is the U.S. government's official web portal to all federal, state and local government web resources and services.